Project,Study,Ord_Occ,Event_Num,Date_Time_UTC,Date_Time_PST,Lat_Dec,Lon_Dec,Sta_ID,Line,Sta,Depth,Pressure,Temp0,Temp1,Salt0,CorrSalt0,Salt1,CorrSalt1,O2ml/L,AveCorrO2ml/L,StaCorrO2ml/L,FluorV,AveEstChl,StaEstChl,ISUSV,AveEstNO3,StaEstNO3,SigThetaTS0,SigThetaTS1,BAT,XMiss,SPAR,PAR,BTL_Depth,BTL_Temp,BTL_Salt,BTL_O2ml/L,BTL_Chl,BTL_Pha,BTL_NO3
CalCOFI,0711NH,057,,15-Nov-2007 18:16:15,15-Nov-2007 10:16:15,34.32134,-120.79347,080.0 055.0,080.0,055.0,511.000,515.327,5.9904,5.9914,34.2741,34.2742,34.2756,34.2763,0.39149,0.39,0.41,0.0235,,,1.6024,40.47,40.218,26.9859,26.9870,0.5494,87.1675,1.6971e+03,9.9990e+03,511,5.99 ,34.271,  .36,,,40.4
CalCOFI,0711NH,057,,15-Nov-2007 18:16:34,15-Nov-2007 10:16:34,34.32143,-120.79352,080.0 055.0,080.0,055.0,510.000,514.317,5.9892,5.9907,34.2745,34.2746,34.2756,34.2763,0.38929,0.39,0.40,0.0234,,,1.5676,39.42,39.109,26.9863,26.9870,0.5492,87.1704,1.7446e+03,9.9990e+03,,,,,,,
CalCOFI,0711NH,057,,15-Nov-2007 18:17:29,15-Nov-2007 10:17:29,34.32165,-120.79357,080.0 055.0,080.0,055.0,509.000,513.308,6.0023,6.0037,34.2734,34.2735,34.2740,34.2747,0.39050,0.39,0.41,0.0236,,,1.5969,40.30,40.043,26.9838,26.9841,0.5488,87.1783,1.7307e+03,9.9990e+03,,,,,,,
CalCOFI,0711NH,057,,15-Nov-2007 18:17:39,15-Nov-2007 10:17:39,34.32168,-120.79356,080.0 055.0,080.0,055.0,508.000,512.298,6.0036,6.0049,34.2733,34.2734,34.2739,34.2746,0.39115,0.39,0.41,0.0232,,,1.5801,39.80,39.507,26.9836,26.9839,0.5488,87.1796,1.7327e+03,9.9990e+03,,,,,,,
CalCOFI,0711NH,057,,15-Nov-2007 18:17:41,15-Nov-2007 10:17:41,34.32168,-120.79356,080.0 055.0,080.0,055.0,507.000,511.288,6.0056,6.0068,34.2732,34.2733,34.2739,34.2746,0.39106,0.39,0.41,0.0236,,,1.6208,41.02,40.805,26.9832,26.9836,0.5487,87.1806,1.7293e+03,9.9990e+03,,,,,,,
CalCOFI,0711NH,057,,15-Nov-2007 18:17:42,15-Nov-2007 10:17:42,34.32168,-120.79356,080.0 055.0,080.0,055.0,506.000,510.279,6.0063,6.0078,34.2732,34.2733,34.2738,34.2745,0.39184,0.39,0.41,0.0233,,,1.6372,41.51,41.327,26.9832,26.9834,0.5488,87.1798,1.7285e+03,9.9990e+03,,,,,,,
CalCOFI,0711NH,057,,15-Nov-2007 18:17:43,15-Nov-2007 10:17:43,-9.990e-29,-120.79356,080.0 055.0,080.0,055.0,505.000,509.269,6.0070,6.0084,34.2730,34.2731,34.2736,34.2743,0.39326,0.39,0.41,0.0232,,,1.6369,41.50,41.318,26.9829,26.9832,0.5488,87.1795,1.7256e+03,9.9990e+03,,,,,,,
CalCOFI,0711NH,057,,15-Nov-2007 18:17:44,15-Nov-2007 10:17:44,-9.990e-29,-120.79356,080.0 055.0,080.0,055.0,504.000,508.259,6.0046,6.0062,34.2720,34.2721,34.2724,34.2731,0.39552,0.39,0.41,0.0234,,,1.6338,41.41,41.219,26.9824,26.9825,0.5488,87.1802,1.7249e+03,9.9990e+03,,,,,,,
CalCOFI,0711NH,057,,15-Nov-2007 18:17:45,15-Nov-2007 10:17:45,-9.990e-29,-120.79356,080.0 055.0,080.0,055.0,503.000,507.250,6.0010,6.0026,34.2698,34.2699,34.2703,34.2710,0.39900,0.40,0.41,0.0232,,,1.6061,40.58,40.336,26.9811,26.9813,0.5487,87.1810,1.7257e+03,9.9990e+03,,,,,,,
CalCOFI,0711NH,057,,15-Nov-2007 18:17:46,15-Nov-2007 10:17:46,-9.990e-29,-120.79356,080.0 055.0,080.0,055.0,502.000,506.240,6.0020,6.0030,34.2676,34.2677,34.2684,34.2691,0.40231,0.40,0.42,0.0235,,,1.6019,40.45,40.202,26.9792,26.9797,0.5486,87.1828,1.7258e+03,9.9990e+03,,,,,,,
CalCOFI,0711NH,057,,15-Nov-2007 18:17:47,15-Nov-2007 10:17:47,-9.990e-29,-120.79356,080.0 055.0,080.0,055.0,501.000,505.230,6.0106,6.0117,34.2659,34.2660,34.2665,34.2672,0.40462,0.40,0.42,0.0236,,,1.5465,38.79,38.436,26.9768,26.9771,0.5486,87.1826,1.7236e+03,9.9990e+03,,,,,,,
CalCOFI,0711NH,057,,15-Nov-2007 18:17:48,15-Nov-2007 10:17:48,-9.990e-29,-120.79356,080.0 055.0,080.0,055.0,500.000,504.221,6.0109,6.0126,34.2650,34.2651,34.2656,34.2663,0.40713,0.40,0.42,0.0239,,,1.5964,40.29,40.027,26.9760,26.9763,0.5486,87.1839,1.7143e+03,9.9990e+03,,,,,,,
CalCOFI,0711NH,057,,15-Nov-2007 18:17:50,15-Nov-2007 10:17:50,-9.990e-29,-120.79356,080.0 055.0,080.0,055.0,499.000,503.211,6.0144,6.0151,34.2650,34.2651,34.2656,34.2663,0.40904,0.41,0.42,0.0234,,,1.6074,40.62,40.377,26.9756,26.9759,0.5487,87.1820,1.7098e+03,9.9990e+03,,,,,,,
CalCOFI,0711NH,057,,15-Nov-2007 18:17:51,15-Nov-2007 10:17:51,34.32171,-120.79356,080.0 055.0,080.0,055.0,498.000,502.201,6.0241,6.0245,34.2653,34.2654,34.2659,34.2666,0.41087,0.41,0.43,0.0234,,,1.5791,39.77,39.475,26.9745,26.9750,0.5482,87.1921,1.7056e+03,9.9990e+03,,,,,,,
CalCOFI,0711NH,057,,15-Nov-2007 18:17:52,15-Nov-2007 10:17:52,34.32172,-120.79356,080.0 055.0,080.0,055.0,497.000,501.192,6.0269,6.0283,34.2647,34.2648,34.2652,34.2659,0.41215,0.41,0.43,0.0236,,,1.5723,39.56,39.259,26.9738,26.9739,0.5492,87.1710,1.6981e+03,9.9990e+03,,,,,,,
CalCOFI,0711NH,057,,15-Nov-2007 18:17:53,15-Nov-2007 10:17:53,34.32172,-120.79356,080.0 055.0,080.0,055.0,496.000,500.182,6.0273,6.0289,34.2647,34.2648,34.2650,34.2657,0.41217,0.41,0.43,0.0236,,,1.5823,39.86,39.577,26.9737,26.9737,0.5483,87.1898,1.6743e+03,9.9990e+03,,,,,,,
CalCOFI,0711NH,057,,15-Nov-2007 18:17:54,15-Nov-2007 10:17:54,34.32172,-120.79356,080.0 055.0,080.0,055.0,495.000,499.172,6.0274,6.0288,34.2645,34.2646,34.2650,34.2657,0.41329,0.41,0.43,0.0236,,,1.5944,40.23,39.963,26.9735,26.9737,0.5520,87.1098,1.6603e+03,9.9990e+03,,,,,,,
CalCOFI,0711NH,057,,15-Nov-2007 18:17:54,15-Nov-2007 10:17:54,34.32172,-120.79354,080.0 055.0,080.0,055.0,494.000,498.163,6.0289,6.0302,34.2645,34.2646,34.2650,34.2657,0.41353,0.41,0.43,0.0237,,,1.5996,40.38,40.129,26.9733,26.9735,0.5499,87.1548,1.6503e+03,9.9990e+03,,,,,,,
CalCOFI,0711NH,057,,15-Nov-2007 18:17:55,15-Nov-2007 10:17:55,34.32172,-120.79354,080.0 055.0,080.0,055.0,493.000,497.153,6.0450,6.0439,34.2658,34.2659,34.2661,34.2668,0.41381,0.41,0.43,0.0236,,,1.6003,40.41,40.151,26.9723,26.9726,0.5485,87.1852,1.6404e+03,9.9990e+03,,,,,,,
CalCOFI,0711NH,057,,15-Nov-2007 18:17:56,15-Nov-2007 10:17:56,34.32172,-120.79354,080.0 055.0,080.0,055.0,492.000,496.143,6.0554,6.0575,34.2658,34.2659,34.2663,34.2670,0.41475,0.41,0.43,0.0237,,,1.6149,40.84,40.616,26.9710,26.9711,0.5485,87.1849,1.5988e+03,9.9990e+03,,,,,,,
CalCOFI,0711NH,057,,15-Nov-2007 18:17:57,15-Nov-2007 10:17:57,34.32173,-120.79354,080.0 055.0,080.0,055.0,491.000,495.134,6.0623,6.0657,34.2663,34.2664,34.2665,34.2672,0.41524,0.41,0.43,0.0233,,,1.6157,40.87,40.642,26.9704,26.9702,0.5485,87.1851,1.5989e+03,9.9990e+03,,,,,,,
CalCOFI,0711NH,057,,15-Nov-2007 18:17:58,15-Nov-2007 10:17:58,34.32174,-120.79354,080.0 055.0,080.0,055.0,490.000,494.124,6.0779,6.0791,34.2662,34.2663,34.2666,34.2673,0.41681,0.41,0.43,0.0234,,,1.5764,39.69,39.389,26.9684,26.9686,0.5485,87.1865,1.5808e+03,9.9990e+03,,,,,,,
CalCOFI,0711NH,057,,15-Nov-2007 18:17:59,15-Nov-2007 10:17:59,34.32174,-120.79354,080.0 055.0,080.0,055.0,489.000,493.114,6.0842,6.0854,34.2659,34.2660,34.2662,34.2669,0.41821,0.41,0.43,0.0237,,,1.6050,40.55,40.301,26.9674,26.9674,0.5484,87.1883,1.5789e+03,9.9990e+03,,,,,,,
CalCOFI,0711NH,057,,15-Nov-2007 18:18:00,15-Nov-2007 10:18:00,34.32174,-120.79354,080.0 055.0,080.0,055.0,488.000,492.105,6.0889,6.0895,34.2657,34.2658,34.2662,34.2669,0.42097,0.42,0.44,0.0236,,,1.6094,40.68,40.441,26.9666,26.9669,0.5484,87.1874,1.5790e+03,9.9990e+03,,,,,,,
CalCOFI,0711NH,057,,15-Nov-2007 18:18:01,15-Nov-2007 10:18:01,34.32174,-120.79354,080.0 055.0,080.0,055.0,487.000,491.095,6.0995,6.1004,34.2647,34.2648,34.2651,34.2658,0.42171,0.42,0.44,0.0232,,,1.5970,40.31,40.046,26.9645,26.9646,0.5485,87.1848,1.5789e+03,9.9990e+03,,,,,,,
CalCOFI,0711NH,057,,15-Nov-2007 18:18:02,15-Nov-2007 10:18:02,34.32175,-120.79354,080.0 055.0,080.0,055.0,486.000,490.086,6.1066,6.1080,34.2649,34.2650,34.2650,34.2657,0.42378,0.42,0.44,0.0233,,,1.5870,40.01,39.727,26.9637,26.9636,0.5485,87.1850,1.5788e+03,9.9990e+03,,,,,,,
CalCOFI,0711NH,057,,15-Nov-2007 18:18:03,15-Nov-2007 10:18:03,34.32176,-120.79354,080.0 055.0,080.0,055.0,485.000,489.076,6.1150,6.1159,34.2646,34.2647,34.2649,34.2656,0.42506,0.42,0.44,0.0233,,,1.5731,39.59,39.284,26.9624,26.9625,0.5485,87.1845,1.5792e+03,9.9990e+03,,,,,,,
CalCOFI,0711NH,057,,15-Nov-2007 18:18:04,15-Nov-2007 10:18:04,34.32176,-120.79354,080.0 055.0,080.0,055.0,484.000,488.066,6.1206,6.1214,34.2648,34.2649,34.2650,34.2657,0.42551,0.42,0.44,0.0234,,,1.5679,39.43,39.118,26.9618,26.9619,0.5489,87.1772,1.5792e+03,9.9990e+03,,,,,,,
CalCOFI,0711NH,057,,15-Nov-2007 18:18:05,15-Nov-2007 10:18:05,34.32176,-120.79354,080.0 055.0,080.0,055.0,483.000,487.057,6.1258,6.1270,34.2647,34.2648,34.2649,34.2656,0.42715,0.42,0.44,0.0232,,,1.6106,40.71,40.479,26.9611,26.9611,0.5483,87.1897,1.5834e+03,9.9990e+03,,,,,,,
CalCOFI,0711NH,057,,15-Nov-2007 18:18:06,15-Nov-2007 10:18:06,34.32176,-120.79353,080.0 055.0,080.0,055.0,482.000,486.047,6.1272,6.1288,34.2649,34.2650,34.2649,34.2656,0.42719,0.42,0.44,0.0231,,,1.5466,38.79,38.440,26.9610,26.9608,0.5484,87.1874,1.5950e+03,9.9990e+03,,,,,,,
CalCOFI,0711NH,057,,15-Nov-2007 18:18:07,15-Nov-2007 10:18:07,34.32177,-120.79352,080.0 055.0,080.0,055.0,481.000,485.038,6.1284,6.1299,34.2648,34.2649,34.2648,34.2655,0.42715,0.42,0.44,0.0236,,,1.5461,38.78,38.424,26.9608,26.9606,0.5484,87.1874,1.5952e+03,9.9990e+03,,,,,,,
CalCOFI,0711NH,057,,15-Nov-2007 18:18:08,15-Nov-2007 10:18:08,34.32178,-120.79352,080.0 055.0,080.0,055.0,480.000,484.028,6.1298,6.1308,34.2648,34.2649,34.2649,34.2656,0.42781,0.42,0.44,0.0236,,,1.5636,39.30,38.981,26.9606,26.9606,0.5486,87.1826,1.6029e+03,9.9990e+03,,,,,,,
CalCOFI,0711NH,057,,15-Nov-2007 18:18:09,15-Nov-2007 10:18:09,34.32178,-120.79352,080.0 055.0,080.0,055.0,479.000,483.019,6.1329,6.1346,34.2647,34.2648,34.2649,34.2656,0.42752,0.42,0.44,0.0235,,,1.5840,39.92,39.632,26.9602,26.9601,0.5486,87.1839,1.6031e+03,9.9990e+03,,,,,,,
CalCOFI,0711NH,057,,15-Nov-2007 18:18:10,15-Nov-2007 10:18:10,34.32178,-120.79352,080.0 055.0,080.0,055.0,478.000,482.009,6.1365,6.1385,34.2649,34.2650,34.2649,34.2656,0.42760,0.42,0.44,0.0230,,,1.5992,40.37,40.116,26.9598,26.9596,0.5483,87.1896,1.6156e+03,9.9990e+03,,,,,,,
CalCOFI,0711NH,057,,15-Nov-2007 18:18:11,15-Nov-2007 10:18:11,34.32178,-120.79352,080.0 055.0,080.0,055.0,477.000,481.000,6.1396,6.1413,34.2649,34.2650,34.2651,34.2658,0.42900,0.42,0.44,0.0235,,,1.5699,39.49,39.182,26.9594,26.9593,0.5485,87.1856,1.6225e+03,9.9990e+03,,,,,,,
CalCOFI,0711NH,057,,15-Nov-2007 18:18:12,15-Nov-2007 10:18:12,34.32179,-120.79352,080.0 055.0,080.0,055.0,476.000,479.990,6.1435,6.1445,34.2647,34.2648,34.2652,34.2659,0.42871,0.42,0.44,0.0232,,,1.6166,40.89,40.671,26.9588,26.9590,0.5486,87.1829,1.6318e+03,9.9990e+03,,,,,,,
CalCOFI,0711NH,057,,15-Nov-2007 18:18:13,15-Nov-2007 10:18:13,34.32180,-120.79352,080.0 055.0,080.0,055.0,475.000,478.980,6.1512,6.1519,34.2647,34.2648,34.2649,34.2656,0.43000,0.43,0.45,0.0238,,,1.5800,39.80,39.504,26.9578,26.9579,0.5486,87.1837,1.6356e+03,9.9990e+03,,,,,,,
CalCOFI,0711NH,057,,15-Nov-2007 18:18:14,15-Nov-2007 10:18:14,34.32180,-120.79352,080.0 055.0,080.0,055.0,474.000,477.971,6.1538,6.1551,34.2647,34.2648,34.2649,34.2656,0.43099,0.43,0.45,0.0235,,,1.6289,41.26,41.063,26.9574,26.9574,0.5484,87.1874,1.6703e+03,9.9990e+03,,,,,,,
CalCOFI,0711NH,057,,15-Nov-2007 18:18:15,15-Nov-2007 10:18:15,34.32180,-120.79352,080.0 055.0,080.0,055.0,473.000,476.961,6.1564,6.1577,34.2647,34.2648,34.2649,34.2656,0.43125,0.43,0.45,0.0232,,,1.5639,39.31,38.991,26.9571,26.9571,0.5487,87.1817,1.6703e+03,9.9990e+03,,,,,,,
CalCOFI,0711NH,057,,15-Nov-2007 18:18:16,15-Nov-2007 10:18:16,34.32180,-120.79352,080.0 055.0,080.0,055.0,472.000,475.952,6.1595,6.1609,34.2649,34.2650,34.2649,34.2656,0.43395,0.43,0.45,0.0235,,,1.5599,39.19,38.863,26.9568,26.9566,0.5485,87.1863,1.7031e+03,9.9990e+03,,,,,,,
CalCOFI,0711NH,057,,15-Nov-2007 18:18:17,15-Nov-2007 10:18:17,34.32180,-120.79352,080.0 055.0,080.0,055.0,471.000,474.942,6.1598,6.1613,34.2635,34.2636,34.2637,34.2644,0.43534,0.43,0.45,0.0235,,,1.5637,39.31,38.985,26.9557,26.9557,0.5484,87.1885,1.7058e+03,9.9990e+03,,,,,,,
CalCOFI,0711NH,057,,15-Nov-2007 18:18:18,15-Nov-2007 10:18:18,34.32181,-120.79352,080.0 055.0,080.0,055.0,470.000,473.933,6.1761,6.1776,34.2641,34.2642,34.2640,34.2647,0.43571,0.43,0.45,0.0233,,,1.5369,38.50,38.130,26.9540,26.9538,0.5485,87.1853,1.7397e+03,9.9990e+03,,,,,,,
CalCOFI,0711NH,057,,15-Nov-2007 18:18:19,15-Nov-2007 10:18:19,34.32182,-120.79352,080.0 055.0,080.0,055.0,469.000,472.923,6.1944,6.1945,34.2649,34.2650,34.2651,34.2658,0.43654,0.43,0.45,0.0234,,,1.5185,37.95,37.544,26.9524,26.9525,0.5485,87.1851,1.7493e+03,9.9990e+03,,,,,,,
CalCOFI,0711NH,057,,15-Nov-2007 18:18:20,15-Nov-2007 10:18:20,34.32182,-120.79352,080.0 055.0,080.0,055.0,468.000,471.914,6.1984,6.2002,34.2649,34.2650,34.2647,34.2654,0.43745,0.43,0.45,0.0239,,,1.5181,37.94,37.531,26.9518,26.9514,0.5487,87.1815,1.7493e+03,9.9990e+03,,,,,,,
CalCOFI,0711NH,057,,15-Nov-2007 18:18:21,15-Nov-2007 10:18:21,34.32182,-120.79352,080.0 055.0,080.0,055.0,467.000,470.904,6.2011,6.2027,34.2648,34.2649,34.2648,34.2655,0.43944,0.44,0.45,0.0232,,,1.5407,38.62,38.251,26.9514,26.9512,0.5488,87.1791,1.7492e+03,9.9990e+03,,,,,,,
CalCOFI,0711NH,057,,15-Nov-2007 18:18:21,15-Nov-2007 10:18:21,34.32182,-120.79350,080.0 055.0,080.0,055.0,466.000,469.895,6.2038,6.2052,34.2638,34.2639,34.2637,34.2644,0.44115,0.44,0.46,0.0233,,,1.5543,39.02,38.685,26.9502,26.9500,0.5486,87.1835,1.7494e+03,9.9990e+03,,,,,,,
CalCOFI,0711NH,057,,15-Nov-2007 18:18:22,15-Nov-2007 10:18:22,34.32182,-120.79350,080.0 055.0,080.0,055.0,465.000,468.885,6.2084,6.2093,34.2634,34.2635,34.2632,34.2639,0.44353,0.44,0.46,0.0233,,,1.5633,39.29,38.972,26.9493,26.9491,0.5487,87.1812,1.7512e+03,9.9990e+03,,,,,,,
CalCOFI,0711NH,057,,15-Nov-2007 18:18:23,15-Nov-2007 10:18:23,34.32183,-120.79350,080.0 055.0,080.0,055.0,464.000,467.876,6.2148,6.2161,34.2632,34.2633,34.2632,34.2639,0.44628,0.44,0.46,0.0234,,,1.5820,39.86,39.568,26.9483,26.9482,0.5487,87.1806,1.7533e+03,9.9990e+03,,,,,,,
CalCOFI,0711NH,057,,15-Nov-2007 18:18:24,15-Nov-2007 10:18:24,34.32184,-120.79350,080.0 055.0,080.0,055.0,463.000,466.866,6.2207,6.2212,34.2629,34.2630,34.2629,34.2636,0.44728,0.44,0.46,0.0234,,,1.5789,39.76,39.469,26.9473,26.9473,0.5489,87.1774,1.7532e+03,9.9990e+03,,,,,,,
CalCOFI,0711NH,057,,15-Nov-2007 18:18:26,15-Nov-2007 10:18:26,34.32184,-120.79350,080.0 055.0,080.0,055.0,462.000,465.857,6.2284,6.2278,34.2625,34.2626,34.2626,34.2633,0.44981,0.45,0.46,0.0237,,,1.5570,39.11,38.771,26.9460,26.9462,0.5487,87.1806,1.7531e+03,9.9990e+03,,,,,,,
CalCOFI,0711NH,057,,15-Nov-2007 18:18:27,15-Nov-2007 10:18:27,34.32184,-120.79350,080.0 055.0,080.0,055.0,461.000,464.847,6.2317,6.2310,34.2622,34.2623,34.2622,34.2629,0.45088,0.45,0.47,0.0234,,,1.6056,40.56,40.320,26.9453,26.9454,0.5491,87.1726,1.7533e+03,9.9990e+03,,,,,,,
CalCOFI,0711NH,057,,15-Nov-2007 18:18:28,15-Nov-2007 10:18:28,34.32184,-120.79350,080.0 055.0,080.0,055.0,460.000,463.838,6.2341,6.2345,34.2622,34.2623,34.2623,34.2630,0.45258,0.45,0.47,0.0239,,,1.5723,39.56,39.259,26.9450,26.9451,0.5491,87.1734,1.7531e+03,9.9990e+03,,,,,,,
CalCOFI,0711NH,057,,15-Nov-2007 18:18:29,15-Nov-2007 10:18:29,34.32184,-120.79350,080.0 055.0,080.0,055.0,459.000,462.828,6.2374,6.2381,34.2623,34.2624,34.2623,34.2630,0.45430,0.45,0.47,0.0234,,,1.5186,37.95,37.547,26.9447,26.9445,0.5489,87.1770,1.7533e+03,9.9990e+03,,,,,,,
CalCOFI,0711NH,057,,15-Nov-2007 18:18:30,15-Nov-2007 10:18:30,34.32186,-120.79350,080.0 055.0,080.0,055.0,458.000,461.819,6.2439,6.2455,34.2622,34.2623,34.2624,34.2631,0.46028,0.46,0.48,0.0233,,,1.5631,39.29,38.965,26.9438,26.9437,0.5487,87.1809,1.7533e+03,9.9990e+03,,,,,,,
CalCOFI,0711NH,057,,15-Nov-2007 18:18:30,15-Nov-2007 10:18:30,34.32186,-120.79350,080.0 055.0,080.0,055.0,457.000,460.809,6.2571,6.2580,34.2629,34.2630,34.2627,34.2634,0.46454,0.46,0.48,0.0238,,,1.5788,39.76,39.466,26.9426,26.9423,0.5490,87.1745,1.7533e+03,9.9990e+03,,,,,,,
CalCOFI,0711NH,057,,15-Nov-2007 18:18:31,15-Nov-2007 10:18:31,34.32186,-120.79350,080.0 055.0,080.0,055.0,456.000,459.800,6.2888,6.2887,34.2605,34.2606,34.2609,34.2616,0.47103,0.47,0.49,0.0235,,,1.5930,40.19,39.918,26.9366,26.9370,0.5493,87.1695,1.7531e+03,9.9990e+03,,,,,,,
CalCOFI,0711NH,057,,15-Nov-2007 18:18:32,15-Nov-2007 10:18:32,34.32186,-120.79350,080.0 055.0,080.0,055.0,455.000,458.790,6.2964,6.2980,34.2564,34.2565,34.2560,34.2567,0.47911,0.47,0.49,0.0234,,,1.5930,40.19,39.918,26.9324,26.9319,0.5489,87.1768,1.7533e+03,9.9990e+03,,,,,,,
CalCOFI,0711NH,057,,15-Nov-2007 18:18:33,15-Nov-2007 10:18:33,34.32186,-120.79349,080.0 055.0,080.0,055.0,454.000,457.781,6.2893,6.2918,34.2536,34.2537,34.2535,34.2542,0.48791,0.48,0.50,0.0232,,,1.5962,40.28,40.020,26.9311,26.9306,0.5492,87.1703,1.7530e+03,9.9990e+03,,,,,,,
CalCOFI,0711NH,057,,15-Nov-2007 18:18:34,15-Nov-2007 10:18:34,34.32186,-120.79348,080.0 055.0,080.0,055.0,453.000,456.772,6.2740,6.2773,34.2492,34.2493,34.2492,34.2499,0.49421,0.49,0.51,0.0235,,,1.5566,39.09,38.758,26.9296,26.9291,0.5491,87.1725,1.7534e+03,9.9990e+03,,,,,,,
CalCOFI,0711NH,057,,15-Nov-2007 18:18:35,15-Nov-2007 10:18:35,34.32187,-120.79348,080.0 055.0,080.0,055.0,452.000,455.762,6.2638,6.2658,34.2465,34.2466,34.2465,34.2472,0.49892,0.49,0.51,0.0235,,,1.5693,39.47,39.163,26.9287,26.9284,0.5488,87.1788,1.7531e+03,9.9990e+03,,,,,,,
CalCOFI,0711NH,057,,15-Nov-2007 18:18:36,15-Nov-2007 10:18:36,34.32188,-120.79348,080.0 055.0,080.0,055.0,451.000,454.753,6.2643,6.2662,34.2460,34.2461,34.2462,34.2469,0.50177,0.50,0.52,0.0235,,,1.5745,39.63,39.329,26.9283,26.9282,0.5489,87.1781,1.7491e+03,9.9990e+03,,,,,,,
CalCOFI,0711NH,057,,15-Nov-2007 18:18:37,15-Nov-2007 10:18:37,34.32188,-120.79348,080.0 055.0,080.0,055.0,450.000,453.743,6.2631,6.2652,34.2456,34.2457,34.2458,34.2465,0.50480,0.50,0.52,0.0236,,,1.5655,39.36,39.042,26.9281,26.9280,0.5490,87.1760,1.7492e+03,9.9990e+03,,,,,,,
CalCOFI,0711NH,057,,15-Nov-2007 18:18:38,15-Nov-2007 10:18:38,34.32188,-120.79348,080.0 055.0,080.0,055.0,449.000,452.734,6.2622,6.2637,34.2454,34.2455,34.2453,34.2460,0.50593,0.50,0.52,0.0234,,,1.5534,39.00,38.656,26.9280,26.9278,0.5489,87.1765,1.7493e+03,9.9990e+03,,,,,,,
CalCOFI,0711NH,057,,15-Nov-2007 18:18:39,15-Nov-2007 10:18:39,34.32188,-120.79348,080.0 055.0,080.0,055.0,448.000,451.725,6.2608,6.2625,34.2449,34.2450,34.2449,34.2456,0.51062,0.51,0.52,0.0234,,,1.5395,38.58,38.213,26.9278,26.9276,0.5491,87.1729,1.7489e+03,9.9990e+03,,,,,,,
CalCOFI,0711NH,057,,15-Nov-2007 18:18:40,15-Nov-2007 10:18:40,34.32189,-120.79348,080.0 055.0,080.0,055.0,447.000,450.715,6.2546,6.2564,34.2435,34.2436,34.2435,34.2442,0.51694,0.51,0.53,0.0230,,,1.5471,38.81,38.455,26.9275,26.9272,0.5490,87.1756,1.7455e+03,9.9990e+03,,,,,,,
CalCOFI,0711NH,057,,15-Nov-2007 18:18:41,15-Nov-2007 10:18:41,34.32190,-120.79348,080.0 055.0,080.0,055.0,446.000,449.706,6.2399,6.2422,34.2402,34.2403,34.2395,34.2402,0.52435,0.52,0.54,0.0233,,,1.5659,39.37,39.055,26.9267,26.9259,0.5488,87.1800,1.7452e+03,9.9990e+03,,,,,,,
CalCOFI,0711NH,057,,15-Nov-2007 18:18:42,15-Nov-2007 10:18:42,34.32190,-120.79347,080.0 055.0,080.0,055.0,445.000,448.696,6.2076,6.2071,34.2317,34.2318,34.2316,34.2323,0.52981,0.52,0.54,0.0230,,,1.5422,38.66,38.299,26.9242,26.9241,0.5488,87.1800,1.7450e+03,9.9990e+03,,,,,,,
CalCOFI,0711NH,057,,15-Nov-2007 18:18:43,15-Nov-2007 10:18:43,34.32190,-120.79346,080.0 055.0,080.0,055.0,444.000,447.687,6.1926,6.1957,34.2292,34.2293,34.2295,34.2302,0.53458,0.53,0.55,0.0232,,,1.5415,38.64,38.277,26.9241,26.9239,0.5485,87.1851,1.7414e+03,9.9990e+03,,,,,,,
CalCOFI,0711NH,057,,15-Nov-2007 18:18:44,15-Nov-2007 10:18:44,34.32190,-120.79346,080.0 055.0,080.0,055.0,443.000,446.678,6.1975,6.1998,34.2301,34.2302,34.2303,34.2310,0.54253,0.54,0.56,0.0230,,,1.5456,38.76,38.408,26.9241,26.9240,0.5504,87.1447,1.7384e+03,9.9990e+03,,,,,,,
CalCOFI,0711NH,057,,15-Nov-2007 18:18:46,15-Nov-2007 10:18:46,34.32190,-120.79346,080.0 055.0,080.0,055.0,442.000,445.668,6.1765,6.1914,34.2247,34.2248,34.2280,34.2287,0.55286,0.55,0.57,0.0235,,,1.5710,39.53,39.217,26.9226,26.9232,0.5487,87.1813,1.7356e+03,9.9990e+03,,,,,,,
CalCOFI,0711NH,057,,15-Nov-2007 18:18:47,15-Nov-2007 10:18:47,34.32191,-120.79346,080.0 055.0,080.0,055.0,441.000,444.659,6.1601,6.1669,34.2208,34.2209,34.2216,34.2223,0.56217,0.56,0.58,0.0233,,,1.5666,39.39,39.077,26.9215,26.9213,0.5487,87.1823,1.7336e+03,9.9990e+03,,,,,,,
CalCOFI,0711NH,057,,15-Nov-2007 18:18:48,15-Nov-2007 10:18:48,34.32192,-120.79346,080.0 055.0,080.0,055.0,440.000,443.649,6.1431,6.1504,34.2161,34.2162,34.2177,34.2184,0.57525,0.57,0.59,0.0234,,,1.5463,38.78,38.430,26.9200,26.9203,0.5486,87.1842,1.7253e+03,9.9990e+03,,,,,,,
CalCOFI,0711NH,057,,15-Nov-2007 18:18:50,15-Nov-2007 10:18:50,34.32192,-120.79346,080.0 055.0,080.0,055.0,439.000,442.640,6.1176,6.1305,34.2093,34.2094,34.2122,34.2129,0.59002,0.58,0.60,0.0229,,,1.5579,39.13,38.800,26.9178,26.9185,0.5486,87.1824,1.7285e+03,9.9990e+03,,,,,,,
CalCOFI,0711NH,057,,15-Nov-2007 18:18:52,15-Nov-2007 10:18:52,34.32192,-120.79346,080.0 055.0,080.0,055.0,438.000,441.631,6.1106,6.1139,34.2046,34.2047,34.2066,34.2073,0.59970,0.59,0.61,0.0232,,,1.5474,38.82,38.465,26.9150,26.9162,0.5485,87.1866,1.7296e+03,9.9990e+03,,,,,,,
CalCOFI,0711NH,057,,15-Nov-2007 18:18:55,15-Nov-2007 10:18:55,34.32193,-120.79345,080.0 055.0,080.0,055.0,437.000,440.621,6.1194,6.1192,34.2057,34.2058,34.2053,34.2060,0.60500,0.60,0.62,0.0234,,,1.5275,38.22,37.831,26.9147,26.9145,0.5487,87.1822,1.7236e+03,9.9990e+03,437,6.11 ,34.196,  .61,,,39.8
CalCOFI,0711NH,057,,15-Nov-2007 18:18:58,15-Nov-2007 10:18:58,-9.990e-29,-120.79344,080.0 055.0,080.0,055.0,436.000,439.612,6.1151,6.1168,34.1983,34.1984,34.1991,34.1998,0.62404,0.62,0.64,0.0233,,,1.5537,39.01,38.666,26.9095,26.9098,0.5486,87.1826,1.7215e+03,9.9990e+03,,,,,,,
CalCOFI,0711NH,057,,15-Nov-2007 18:19:11,15-Nov-2007 10:19:11,34.32212,-120.79342,080.0 055.0,080.0,055.0,435.000,438.603,6.1198,6.1192,34.1968,34.1969,34.1968,34.1975,0.62828,0.62,0.64,0.0234,,,1.5801,39.80,39.507,26.9076,26.9077,0.5483,87.1888,1.7328e+03,9.9990e+03,,,,,,,
CalCOFI,0711NH,057,,15-Nov-2007 18:20:28,15-Nov-2007 10:20:28,34.32212,-120.79326,080.0 055.0,080.0,055.0,434.000,437.593,6.1366,6.1379,34.1947,34.1948,34.1942,34.1949,0.64985,0.64,0.66,-9.990e-29,,,1.5945,40.23,39.966,26.9038,26.9033,-9.990e-29,-9.990e-29,1.7926e+03,9.9990e+03,,,,,,,
CalCOFI,0711NH,057,,15-Nov-2007 18:20:29,15-Nov-2007 10:20:29,34.32212,-120.79326,080.0 055.0,080.0,055.0,433.000,436.584,6.1405,6.1416,34.1947,34.1948,34.1941,34.1948,0.65146,0.64,0.66,0.0228,,,1.5773,39.71,39.418,26.9033,26.9027,0.5482,87.1923,1.7930e+03,9.9990e+03,,,,,,,
CalCOFI,0711NH,057,,15-Nov-2007 18:20:30,15-Nov-2007 10:20:30,34.32212,-120.79326,080.0 055.0,080.0,055.0,432.000,435.575,6.1511,6.1519,34.1957,34.1958,34.1953,34.1960,0.65505,0.65,0.67,0.0236,,,1.5544,39.03,38.688,26.9027,26.9023,0.5483,87.1898,1.7930e+03,9.9990e+03,,,,,,,
CalCOFI,0711NH,057,,15-Nov-2007 18:20:31,15-Nov-2007 10:20:31,34.32212,-120.79326,080.0 055.0,080.0,055.0,431.000,434.565,6.1790,6.1788,34.1976,34.1977,34.1974,34.1981,0.65894,0.65,0.67,0.0234,,,1.5446,38.73,38.376,26.9007,26.9006,0.5482,87.1919,1.7926e+03,9.9990e+03,,,,,,,
CalCOFI,0711NH,057,,15-Nov-2007 18:20:32,15-Nov-2007 10:20:32,34.32212,-120.79326,080.0 055.0,080.0,055.0,430.000,433.556,6.2156,6.2151,34.1965,34.1966,34.1963,34.1970,0.66207,0.65,0.67,0.0235,,,1.5500,38.90,38.548,26.8952,26.8951,0.5482,87.1921,1.7903e+03,9.9990e+03,,,,,,,
CalCOFI,0711NH,057,,15-Nov-2007 18:20:33,15-Nov-2007 10:20:33,34.32212,-120.79326,080.0 055.0,080.0,055.0,429.000,432.547,6.2255,6.2276,34.1964,34.1965,34.1959,34.1966,0.66467,0.66,0.68,0.0231,,,1.5611,39.23,38.902,26.8938,26.8931,0.5481,87.1932,1.7887e+03,9.9990e+03,,,,,,,
CalCOFI,0711NH,057,,15-Nov-2007 18:20:34,15-Nov-2007 10:20:34,34.32212,-120.79326,080.0 055.0,080.0,055.0,428.000,431.537,6.2259,6.2271,34.1966,34.1967,34.1960,34.1967,0.66592,0.66,0.68,0.0234,,,1.5161,37.88,37.467,26.8939,26.8933,0.5480,87.1955,1.7886e+03,9.9990e+03,,,,,,,
CalCOFI,0711NH,057,,15-Nov-2007 18:20:35,15-Nov-2007 10:20:35,34.32212,-120.79326,080.0 055.0,080.0,055.0,427.000,430.528,6.2314,6.2306,34.1968,34.1969,34.1961,34.1968,0.66772,0.66,0.68,0.0232,,,1.5184,37.95,37.541,26.8933,26.8929,0.5481,87.1953,1.7889e+03,9.9990e+03,,,,,,,